Location: Three Guys Observatory
(38.6418°N, 87.1521°W)
Time: 19:51:05
(UTC-04:00)

ISS - Visible Passes

Search period start: 24 October 2014 00:00
Search period end: 02 November 2014 23:00
Orbit: 412 x 416 km, 51.6° (Epoch: 24 October)

Date Brightness Start Highest point End Pass type
(mag) Time Alt. Az. Time Alt. Az. Time Alt. Az.
24 Oct -2.0 19:39:00 10° NNW 19:41:53 26° NNE 19:44:04 14° E visible
24 Oct -0.7 21:15:31 10° WNW 21:16:57 21° W 21:16:57 21° W visible
25 Oct -3.1 20:26:11 10° NW 20:29:30 71° SW 20:30:14 49° SSE visible
26 Oct -3.2 19:36:58 10° NW 19:40:17 62° NE 19:43:35 10° ESE visible
26 Oct -0.2 21:15:03 10° W 21:16:35 13° SW 21:16:35 13° SW visible
27 Oct -1.0 20:24:48 10° WNW 20:27:30 23° SW 20:30:12 10° S visible
28 Oct -2.0 19:35:08 10° WNW 19:38:19 43° SW 19:41:29 10° SSE visible
30 Oct -0.2 19:34:00 10° W 19:35:59 15° SW 19:37:57 10° SSW visible
